{"data":{"norad_id":62315,"epoch":"2026-09-21T17:37:28.052544Z","epoch_age_seconds":71566,"freshness":"FRESH","line1":"1 62315U 24239Q   26264.73435246  .00023113  00000+0  69291-3 0  9990","line2":"2 62315  53.1618   0.1178 0001139  64.5827 295.5294 15.34407954 99440","mean_motion":15.34407954,"eccentricity":0.0001139,"inclination_deg":53.1618,"raan_deg":0.1178,"arg_perigee_deg":64.5827,"mean_anomaly_deg":295.5294,"bstar":0.00069291,"rev_number":9944,"period_min":93.847271597238,"perigee_km":461.90043033434,"apogee_km":463.45876835566,"semimajor_km":6840.816599345,"source":"CELESTRAK","updated_at":"2026-09-22T09:00:49.573689Z"}}